When you browse on this site, cookies collect data to enhance your experience and personalize the content and advertising you see.
Visit our Privacy Policy to learn more. By continuing to use the site, you agree to this use of cookies and data.

Stündliche Wetter Luanda

Heute, 13 Juli, Montag

Zeit Temperatur Niederschläge Wind Luftdruck Luftfeuchtigkeit
00:00 +21°C° 0 mm 3 m/S 756 mmHg 86%
01:00 +19°C° 0 mm 2 m/S 756 mmHg 94%
02:00 +19°C° 0 mm 2 m/S 755 mmHg 92%
03:00 +20°C° 0 mm 2 m/S 755 mmHg 91%
04:00 +20°C° 0 mm 2 m/S 754 mmHg 90%
05:00 +20°C° 0 mm 2 m/S 755 mmHg 87%
06:00 +21°C° 0 mm 2 m/S 755 mmHg 84%
07:00 +23°C° 0 mm 2 m/S 755 mmHg 80%
08:00 +24°C° 0 mm 2 m/S 755 mmHg 73%
09:00 +25°C° 0 mm 1 m/S 755 mmHg 66%
10:00 +27°C° 0 mm 1 m/S 756 mmHg 60%
11:00 +28°C° 0 mm 2 m/S 755 mmHg 55%
12:00 +29°C° 0 mm 3 m/S 754 mmHg 51%
13:00 +32°C° 0 mm 4 m/S 754 mmHg 46%
14:00 +30°C° 0 mm 5 m/S 753 mmHg 51%
15:00 +29°C° 0 mm 5 m/S 752 mmHg 55%
16:00 +28°C° 0 mm 6 m/S 752 mmHg 59%
17:00 +26°C° 0 mm 5 m/S 752 mmHg 68%
18:00 +23°C° 0 mm 5 m/S 753 mmHg 77%
19:00 +22°C° 0 mm 4 m/S 753 mmHg 86%
20:00 +21°C° 0 mm 4 m/S 754 mmHg 88%
21:00 +21°C° 0 mm 3 m/S 754 mmHg 90%
22:00 +21°C° 0 mm 2 m/S 755 mmHg 93%
23:00 +21°C° 0 mm 2 m/S 755 mmHg 91%

Morgen, 14 Juli, Dienstag

Zeit Temperatur Niederschläge Wind Luftdruck Luftfeuchtigkeit
00:00 +22°C° 0 mm 1 m/S 755 mmHg 90%
01:00 +22°C° 0 mm 1 m/S 755 mmHg 89%
02:00 +22°C° 0 mm 1 m/S 754 mmHg 86%
03:00 +23°C° 0 mm 1 m/S 754 mmHg 83%
04:00 +23°C° 0 mm 1 m/S 753 mmHg 80%
05:00 +23°C° 0 mm 1 m/S 754 mmHg 79%
06:00 +24°C° 0 mm 1 m/S 754 mmHg 79%
07:00 +24°C° 0 mm 2 m/S 754 mmHg 78%
08:00 +25°C° 0 mm 2 m/S 754 mmHg 71%
09:00 +26°C° 0 mm 2 m/S 754 mmHg 65%
10:00 +27°C° 0 mm 1 m/S 754 mmHg 59%
11:00 +29°C° 0 mm 2 m/S 753 mmHg 54%
12:00 +30°C° 0 mm 3 m/S 753 mmHg 49%
13:00 +33°C° 0 mm 4 m/S 752 mmHg 44%
14:00 +30°C° 0 mm 5 m/S 752 mmHg 51%
15:00 +29°C° 0 mm 5 m/S 751 mmHg 58%
16:00 +27°C° 0 mm 6 m/S 750 mmHg 65%
17:00 +26°C° 0 mm 6 m/S 751 mmHg 73%
18:00 +25°C° 0 mm 5 m/S 751 mmHg 81%
19:00 +22°C° 0 mm 5 m/S 752 mmHg 89%
20:00 +22°C° 0 mm 4 m/S 753 mmHg 88%
21:00 +24°C° 0 mm 3 m/S 753 mmHg 87%
22:00 +24°C° 0 mm 2 m/S 754 mmHg 85%
23:00 +24°C° 0.1 mm 2 m/S 754 mmHg 84%

übermorgen, 15 Juli, Mittwoch

Zeit Temperatur Niederschläge Wind Luftdruck Luftfeuchtigkeit
00:00 +24°C° 0.1 mm 1 m/S 755 mmHg 82%
01:00 +24°C° 0.1 mm 1 m/S 755 mmHg 80%
02:00 +23°C° 0 mm 1 m/S 754 mmHg 83%
03:00 +23°C° 0 mm 1 m/S 754 mmHg 86%
04:00 +22°C° 0 mm 1 m/S 753 mmHg 88%
05:00 +21°C° 0 mm 2 m/S 754 mmHg 87%
06:00 +23°C° 0 mm 2 m/S 754 mmHg 85%
07:00 +23°C° 0 mm 2 m/S 755 mmHg 84%
08:00 +25°C° 0 mm 2 m/S 755 mmHg 74%
09:00 +27°C° 0 mm 1 m/S 755 mmHg 63%
10:00 +30°C° 0 mm 1 m/S 755 mmHg 53%
11:00 +30°C° 0 mm 2 m/S 754 mmHg 50%
12:00 +31°C° 0 mm 3 m/S 754 mmHg 48%
13:00 +33°C° 0 mm 4 m/S 753 mmHg 45%
14:00 +32°C° 0 mm 5 m/S 752 mmHg 52%
15:00 +29°C° 0 mm 6 m/S 752 mmHg 59%
16:00 +27°C° 0 mm 7 m/S 751 mmHg 67%
17:00 +26°C° 0 mm 6 m/S 752 mmHg 73%
18:00 +25°C° 0 mm 5 m/S 753 mmHg 80%
19:00 +23°C° 0 mm 4 m/S 753 mmHg 87%
20:00 +22°C° 0 mm 3 m/S 754 mmHg 89%
21:00 +23°C° 0 mm 2 m/S 755 mmHg 91%
22:00 +22°C° 0 mm 1 m/S 756 mmHg 93%
23:00 +22°C° 0 mm 1 m/S 756 mmHg 94%

16 Juli, Donnerstag

Zeit Temperatur Niederschläge Wind Luftdruck Luftfeuchtigkeit
00:00 +22°C° 0 mm 1 m/S 756 mmHg 94%
01:00 +22°C° 0 mm 1 m/S 756 mmHg 95%
02:00 +21°C° 0 mm 1 m/S 756 mmHg 95%
03:00 +20°C° 0 mm 2 m/S 756 mmHg 95%
04:00 +20°C° 0 mm 2 m/S 755 mmHg 95%
05:00 +21°C° 0 mm 2 m/S 756 mmHg 93%
06:00 +21°C° 0 mm 3 m/S 756 mmHg 92%
07:00 +21°C° 0 mm 3 m/S 757 mmHg 90%
08:00 +24°C° 0 mm 2 m/S 757 mmHg 79%
09:00 +26°C° 0 mm 1 m/S 757 mmHg 68%
10:00 +27°C° 0 mm 0 m/S 757 mmHg 58%
11:00 +30°C° 0 mm 1 m/S 756 mmHg 53%
12:00 +31°C° 0 mm 2 m/S 755 mmHg 48%
13:00 +33°C° 0 mm 3 m/S 755 mmHg 43%
14:00 +32°C° 0 mm 4 m/S 754 mmHg 49%
15:00 +29°C° 0 mm 5 m/S 754 mmHg 55%
16:00 +28°C° 0 mm 7 m/S 753 mmHg 61%
17:00 +27°C° 0 mm 6 m/S 753 mmHg 70%
18:00 +25°C° 0 mm 5 m/S 754 mmHg 78%
19:00 +22°C° 0 mm 4 m/S 754 mmHg 87%
20:00 +22°C° 0 mm 3 m/S 755 mmHg 89%
21:00 +21°C° 0 mm 2 m/S 756 mmHg 92%
22:00 +22°C° 0 mm 1 m/S 756 mmHg 94%
23:00 +22°C° 0 mm 1 m/S 756 mmHg 95%

17 Juli, Freitag

Zeit Temperatur Niederschläge Wind Luftdruck Luftfeuchtigkeit
00:00 +21°C° 0 mm 1 m/S 756 mmHg 95%
01:00 +21°C° 0 mm 1 m/S 757 mmHg 96%
02:00 +21°C° 0 mm 2 m/S 756 mmHg 93%
03:00 +21°C° 0 mm 2 m/S 756 mmHg 91%
04:00 +23°C° 0 mm 2 m/S 756 mmHg 88%
05:00 +23°C° 0 mm 2 m/S 756 mmHg 87%
06:00 +22°C° 0 mm 3 m/S 757 mmHg 85%
07:00 +22°C° 0 mm 3 m/S 757 mmHg 84%
08:00 +24°C° 0 mm 2 m/S 757 mmHg 77%
09:00 +25°C° 0 mm 2 m/S 757 mmHg 71%
10:00 +26°C° 0 mm 1 m/S 757 mmHg 64%
11:00 +28°C° 0 mm 2 m/S 756 mmHg 56%
12:00 +30°C° 0 mm 2 m/S 755 mmHg 49%
13:00 +33°C° 0 mm 3 m/S 754 mmHg 41%
14:00 +32°C° 0 mm 4 m/S 754 mmHg 47%
15:00 +29°C° 0 mm 5 m/S 753 mmHg 53%
16:00 +28°C° 0 mm 6 m/S 753 mmHg 59%
17:00 +26°C° 0 mm 6 m/S 753 mmHg 67%
18:00 +24°C° 0 mm 6 m/S 754 mmHg 76%
19:00 +22°C° 0 mm 5 m/S 754 mmHg 84%
20:00 +22°C° 0 mm 4 m/S 755 mmHg 87%
21:00 +21°C° 0 mm 3 m/S 755 mmHg 90%
22:00 +21°C° 0 mm 2 m/S 756 mmHg 93%
23:00 +21°C° 0 mm 2 m/S 756 mmHg 92%

18 Juli, Samstag

Zeit Temperatur Niederschläge Wind Luftdruck Luftfeuchtigkeit
00:00 +21°C° 0 mm 2 m/S 756 mmHg 91%
01:00 +20°C° 0 mm 3 m/S 756 mmHg 90%
02:00 +21°C° 0 mm 2 m/S 756 mmHg 88%
03:00 +21°C° 0 mm 2 m/S 755 mmHg 86%
04:00 +21°C° 0 mm 2 m/S 755 mmHg 84%
05:00 +21°C° 0 mm 3 m/S 756 mmHg 84%
06:00 +21°C° 0 mm 3 m/S 756 mmHg 85%
07:00 +21°C° 0 mm 4 m/S 756 mmHg 86%
08:00 +24°C° 0 mm 3 m/S 756 mmHg 74%
09:00 +26°C° 0 mm 2 m/S 756 mmHg 62%
10:00 +28°C° 0 mm 1 m/S 756 mmHg 51%
11:00 +30°C° 0 mm 2 m/S 755 mmHg 44%
12:00 +33°C° 0 mm 3 m/S 754 mmHg 37%
13:00 +35°C° 0 mm 3 m/S 753 mmHg 30%
14:00 +33°C° 0 mm 4 m/S 753 mmHg 39%
15:00 +30°C° 0 mm 5 m/S 752 mmHg 49%
16:00 +28°C° 0 mm 6 m/S 752 mmHg 58%
17:00 +26°C° 0 mm 6 m/S 752 mmHg 67%
18:00 +23°C° 0 mm 5 m/S 753 mmHg 77%
19:00 +22°C° 0 mm 5 m/S 753 mmHg 86%
20:00 +21°C° 0 mm 4 m/S 754 mmHg 88%
21:00 +21°C° 0 mm 3 m/S 754 mmHg 91%
22:00 +20°C° 0 mm 2 m/S 755 mmHg 94%
23:00 +20°C° 0 mm 2 m/S 755 mmHg 94%
Mehr zeigen